RH
17 16 15 15 14 14 14 14 14 14 14 13 12 12 11 11 11 12 12 12 13 13 13 14 14 14 14 15 14 14 14 13 13 13 12 12 11 11 11 11 11 11 10 10 11 11 10 10 9 10 11 13 16 19 19 18 15 13 12 11 10 10 11 12 13 14 15 17 18 17 17 17 16 15 15 14 14 14 13 13 13 13 12 11 10 10 10 14
14 14 13 13 14 14 14 15 15 14 14 13 12 12 11 11 12 12 13 13 13 13 13 14 13 13 14 15 15 15 15 14 13 13 13 12 12 11 11 11 11 11 11 11 11 11 11 11 11 10 10 10 11 13 18 22 22 20 16 15 15 14 12 10 11 12 13 12 12 12 12 12 12 11 11 11 11 11 12 11 11 10 10 10 9 10 11 18
13 13 13 14 14 14 15 15 14 14 13 13 12 12 12 12 13 13 14 14 14 14 14 14 14 13 13 14 15 15 15 15 14 13 13 13 12 12 12 11 11 11 11 11 11 11 11 11 11 11 10 11 10 10 11 14 20 24 23 20 18 18 18 17 14 12 11 10 10 10 10 10 10 9 9 10 10 10 10 10 10 10 9 8 9 13 21 34
14 14 14 14 15 15 14 14 14 14 13 14 14 13 13 14 14 15 16 16 15 15 15 15 15 14 14 14 14 15 15 15 14 14 13 13 13 12 12 12 12 12 12 12 12 12 12 12 11 11 11 11 11 11 11 10 11 15 21 24 22 18 17 18 19 16 12 11 10 10 11 10 9 9 11 11 9 9 9 8 8 8 8 12 19 32 49 67
16 15 15 15 15 15 14 14 14 14 15 15 15 15 15 15 15 16 17 17 17 16 16 16 16 16 15 15 15 15 15 15 14 14 14 13 13 13 13 13 13 13 13 13 13 13 12 13 12 12 12 11 11 11 11 12 11 10 12 17 23 23 18 14 14 14 14 12 11 10 11 10 10 10 10 9 8 9 9 11 13 17 23 32 42 57 74 86
17 16 16 16 16 16 16 16 16 16 17 18 18 17 16 16 16 17 17 18 18 17 16 16 16 17 16 16 16 15 15 14 14 14 14 14 14 14 13 14 14 14 14 14 14 14 14 13 13 13 13 12 12 12 11 11 12 12 11 10 15 21 22 19 15 13 11 9 9 9 9 9 11 12 12 12 13 14 14 14 15 18 24 31 39 52 66 72
19 18 18 18 18 19 19 19 19 19 20 20 20 18 17 17 16 17 17 17 17 17 17 17 17 17 17 17 16 16 15 14 14 14 14 14 14 14 14 14 15 14 14 15 15 15 15 15 15 15 14 14 13 13 12 11 11 11 13 12 11 13 17 21 22 20 17 14 13 14 14 16 17 16 16 16 14 13 10 8 9 9 10 13 19 37 56 61
21 21 21 22 22 22 22 21 21 21 21 21 21 20 19 18 17 17 17 17 17 17 17 17 17 17 17 17 16 15 15 15 14 14 14 14 14 14 14 15 15 15 15 15 16 16 16 16 16 16 16 16 15 15 13 12 12 11 11 12 13 13 13 15 17 19 18 18 17 16 15 15 15 13 13 12 10 10 8 7 8 7 7 8 15 44 69 67
23 24 24 23 23 23 23 23 22 22 22 22 22 21 20 19 18 18 18 17 17 17 17 17 17 17 16 16 16 15 15 15 14 14 14 14 14 14 14 15 15 16 16 16 17 17 16 17 18 19 19 17 16 16 16 15 13 13 12 12 13 14 14 14 13 13 13 13 13 12 11 11 10 10 10 10 10 11 9 8 8 7 8 9 21 53 70 62
24 24 24 24 24 24 24 24 24 23 23 23 23 22 21 20 19 19 18 18 17 17 17 17 16 16 16 16 15 15 14 14 15 14 14 14 14 14 14 15 15 16 17 17 17 17 17 19 21 21 19 17 18 17 17 17 16 15 13 12 13 14 15 15 14 13 13 13 13 12 12 11 11 11 11 10 11 11 10 9 9 9 10 14 31 57 64 57
26 26 26 25 25 25 25 24 24 24 23 23 22 21 20 20 19 18 18 18 17 17 16 16 16 15 15 15 15 15 14 14 15 14 14 15 14 15 15 15 16 16 17 18 17 17 18 21 22 20 18 18 20 20 19 18 17 17 16 14 13 13 15 16 16 16 15 15 14 13 13 13 12 12 11 11 12 11 10 9 10 11 15 24 41 60 62 56
26 26 26 26 25 25 25 24 23 23 23 23 22 22 21 21 20 19 19 19 18 17 17 16 16 16 16 16 17 16 15 14 15 16 16 16 16 16 16 16 17 17 17 18 18 18 19 22 22 19 18 20 22 22 20 18 18 18 17 15 15 14 14 14 16 17 17 17 16 14 14 14 13 12 12 12 12 11 9 10 11 13 23 35 45 57 58 52
30 30 30 30 30 30 30 30 29 28 28 28 29 28 27 26 25 24 22 22 22 20 19 18 17 18 17 18 21 19 17 16 16 18 19 19 19 18 18 19 19 19 19 18 19 19 19 20 21 19 18 19 23 22 19 18 19 19 17 16 17 17 15 14 14 15 16 18 17 16 16 15 15 13 13 13 12 11 10 10 13 15 25 37 44 52 53 48
44 43 42 41 40 40 40 38 36 35 35 35 35 34 33 32 30 29 27 25 25 25 23 21 20 21 21 22 26 24 20 19 19 22 21 20 20 20 21 22 22 22 21 20 19 19 19 19 19 19 19 19 20 20 19 19 19 19 19 17 18 19 18 15 14 14 15 17 17 17 16 16 15 14 13 12 12 12 10 12 16 19 26 37 44 48 50 50
55 53 51 49 48 47 46 45 42 40 39 39 39 39 38 37 36 34 33 31 30 30 29 27 25 26 24 25 30 28 23 22 24 26 24 20 21 23 24 24 23 22 21 20 20 19 19 19 19 18 18 17 17 17 20 20 19 21 21 18 18 20 20 18 17 15 15 17 17 17 16 16 16 15 14 13 13 12 11 16 20 23 31 39 41 42 49 55
50 49 49 48 47 47 46 45 44 42 41 41 41 41 41 40 40 38 37 35 34 33 32 32 30 29 28 28 32 32 25 25 28 28 26 23 23 25 26 25 23 22 21 21 21 20 20 18 18 18 17 17 16 17 19 20 19 20 20 18 18 21 21 18 18 17 16 17 16 17 16 16 16 15 15 14 15 13 13 20 23 26 35 38 34 36 49 58
37 37 37 37 36 36 36 36 36 36 36 37 37 37 37 37 37 37 36 34 34 32 32 33 31 30 30 28 32 34 28 27 30 29 26 25 24 25 26 24 23 23 22 22 21 20 20 19 17 17 17 16 16 16 18 20 18 16 17 19 20 24 23 19 20 20 19 19 17 17 17 17 17 16 15 14 17 15 13 21 24 24 31 31 27 30 44 56
31 31 30 30 30 30 30 31 31 32 32 32 33 33 34 34 35 36 37 36 34 33 33 35 34 32 31 28 31 35 31 28 29 29 27 26 25 25 25 24 23 23 22 21 20 19 18 18 17 16 15 15 15 16 17 18 15 14 16 19 23 28 27 21 22 22 21 21 19 19 18 17 18 18 16 15 19 18 12 18 24 23 25 26 24 26 36 50
34 34 34 33 33 33 34 35 37 37 35 34 34 34 35 36 37 38 39 40 40 38 38 39 38 37 34 31 32 35 33 30 29 30 28 26 26 24 23 23 22 21 21 20 19 18 17 16 15 15 15 15 14 15 15 15 14 14 15 18 24 32 33 27 23 22 22 23 22 21 20 19 18 19 18 15 19 22 15 15 23 25 23 23 24 25 30 41
39 40 41 40 38 37 38 38 39 39 38 35 34 35 36 36 38 41 42 42 43 42 41 41 40 39 37 35 34 34 34 31 29 29 27 25 25 23 22 22 21 20 19 19 18 17 16 15 15 14 14 14 14 14 14 14 14 14 14 17 24 33 37 33 28 25 23 24 25 24 22 20 19 19 19 17 17 23 19 13 20 28 27 25 26 28 31 37
39 40 40 40 39 38 38 38 39 39 38 36 34 33 34 35 36 40 43 43 43 42 41 40 39 38 38 36 34 33 32 30 28 27 26 24 23 22 21 20 19 19 18 17 16 16 15 15 14 13 13 13 13 13 13 13 13 14 15 18 24 35 42 41 38 32 25 24 26 27 25 22 20 19 20 18 16 21 22 14 15 25 30 29 28 30 32 35
36 36 35 35 35 34 34 35 35 36 37 36 35 33 33 33 33 35 38 40 40 39 39 39 38 38 37 35 34 31 30 29 27 25 24 23 22 21 20 19 18 18 17 16 16 16 15 14 13 13 13 12 13 12 13 13 12 13 15 19 27 39 45 46 45 39 30 25 26 29 28 25 22 20 20 19 16 18 22 18 13 19 30 33 32 31 31 33
30 30 29 29 28 28 27 28 28 29 30 31 32 32 31 31 31 31 33 35 36 36 36 36 35 35 34 32 31 29 28 27 25 24 23 22 22 21 20 19 19 18 17 17 17 16 15 14 13 13 12 12 12 12 12 12 12 13 13 18 26 37 44 46 47 46 37 25 24 30 29 27 25 22 21 20 17 17 20 21 14 14 24 32 35 33 30 31
28 28 28 27 27 26 24 24 23 24 24 25 26 28 28 28 28 28 28 30 32 32 32 33 33 32 31 30 28 27 27 25 24 24 23 23 22 22 21 20 18 18 18 17 16 15 15 14 13 13 12 12 12 12 12 12 12 12 12 15 18 26 33 36 42 47 39 25 23 29 30 30 29 26 24 22 18 17 18 21 17 14 19 26 32 33 31 29
27 27 27 27 27 26 26 25 24 24 24 24 25 26 27 27 27 27 27 27 30 32 29 29 31 31 29 28 27 27 27 24 24 25 24 22 22 22 21 20 18 18 18 17 16 15 14 13 13 13 12 12 12 12 12 12 12 11 11 13 13 16 20 23 33 41 37 26 23 29 33 33 32 30 29 24 20 19 17 20 19 14 17 21 24 28 29 27
23 23 23 23 23 23 23 23 22 23 23 24 25 26 27 29 29 29 30 30 31 34 31 27 29 30 29 28 27 27 26 25 24 24 23 22 22 22 21 20 20 20 19 17 16 16 16 14 13 13 13 12 12 13 12 11 12 11 11 11 11 12 14 16 24 31 36 32 24 31 39 36 34 35 34 28 23 21 18 19 20 15 15 20 22 25 27 25
19 19 19 19 19 20 19 19 19 19 19 20 21 22 24 26 27 29 30 31 32 34 33 30 29 30 29 28 27 26 26 26 25 24 24 25 23 22 22 22 21 20 19 17 17 20 19 15 12 13 13 13 13 13 12 11 11 11 10 11 10 11 11 13 16 23 35 37 28 35 44 41 38 38 37 34 28 23 19 18 21 16 12 17 21 25 28 28
17 17 17 17 17 17 17 17 17 17 17 17 17 18 19 20 22 24 26 27 29 31 32 31 29 29 28 27 26 26 25 25 25 23 24 25 23 22 22 21 23 22 19 17 19 21 18 13 12 12 12 14 15 14 13 12 13 12 11 11 11 11 10 11 12 17 29 38 38 41 47 47 45 40 38 39 35 28 22 18 20 18 11 11 15 20 28 32
17 17 17 17 16 16 16 16 16 16 16 15 15 15 16 16 18 20 21 22 24 27 29 29 28 28 27 25 24 24 24 23 22 22 22 22 22 22 21 21 23 22 19 17 19 19 16 13 13 12 16 22 21 16 14 15 15 13 12 12 12 12 11 11 12 14 23 39 49 48 49 53 50 43 41 43 40 32 24 19 20 19 12 8 10 11 17 25
18 17 17 17 17 17 16 16 16 16 16 15 14 14 14 15 15 16 18 19 21 26 27 27 27 26 25 24 23 22 22 21 20 20 20 20 20 20 20 20 20 20 20 18 18 18 16 15 14 14 22 29 24 15 15 16 14 13 12 12 13 13 11 11 11 13 18 32 47 48 47 53 52 45 44 47 42 33 27 23 20 19 14 8 9 8 9 12
17 17 17 17 17 16 16 16 16 16 16 16 15 14 14 14 15 15 15 18 23 25 23 24 26 26 26 24 23 22 21 20 20 19 18 18 18 18 18 19 18 19 20 19 19 19 19 17 16 18 25 29 22 16 16 17 16 15 15 15 14 13 12 11 11 12 15 23 35 38 38 50 53 42 43 48 40 32 32 28 21 19 18 11 9 8 8 8
16 15 15 15 14 14 14 14 14 14 15 15 15 15 14 13 14 14 15 18 22 21 19 22 25 27 28 26 24 23 22 21 20 19 18 18 17 18 18 19 19 19 22 26 27 26 25 22 21 25 29 28 24 20 19 20 20 18 17 16 15 14 13 12 12 12 13 15 21 25 28 46 52 37 41 48 34 31 39 32 21 20 20 17 11 9 8 8
15 14 14 14 13 13 13 13 12 12 12 13 13 13 13 13 13 14 15 16 18 17 18 21 24 27 29 29 27 24 23 22 20 19 18 18 17 18 18 18 18 17 20 25 27 25 24 20 20 25 27 27 28 27 23 25 25 20 17 17 15 15 14 13 13 11 13 12 13 16 19 36 46 34 40 48 31 30 42 36 25 21 21 21 17 13 10 8
14 14 14 14 14 14 13 13 13 12 12 12 12 12 11 12 12 13 14 14 14 15 17 19 21 24 27 28 28 27 25 23 21 20 18 18 17 17 18 18 17 17 17 20 22 22 21 18 17 24 30 31 30 28 24 23 23 18 16 16 14 15 16 15 15 13 13 12 11 13 13 24 35 29 36 46 34 33 46 42 32 24 21 23 23 21 15 9
12 12 12 13 13 13 13 14 13 13 13 13 13 12 12 12 11 11 11 12 13 15 16 17 19 21 23 25 27 27 26 24 22 21 19 18 17 17 18 19 19 19 18 20 23 24 24 22 21 25 30 28 23 21 19 18 21 19 17 19 21 23 22 18 18 17 16 15 12 13 13 16 24 25 33 44 37 37 48 45 38 31 24 22 24 27 23 14
11 10 10 10 11 11 11 12 13 13 13 13 13 13 12 13 12 12 11 11 12 13 14 16 18 19 19 20 23 24 25 24 23 22 20 19 18 16 17 18 19 18 17 18 22 24 26 26 28 28 27 28 24 19 18 19 21 21 20 25 27 24 19 17 19 18 17 18 16 14 14 14 17 20 29 39 34 35 45 45 42 39 31 25 24 27 28 22
12 12 12 11 11 11 11 12 12 12 13 12 13 12 12 12 12 12 13 13 13 12 13 14 16 17 18 17 18 20 22 24 24 23 22 20 18 17 16 17 19 19 18 19 21 25 27 28 33 32 30 36 34 24 22 23 22 24 27 30 26 20 19 20 21 22 26 29 22 16 14 14 14 16 23 31 31 36 46 47 45 44 39 31 26 25 28 28
13 13 13 13 13 13 13 13 13 13 14 13 13 12 11 10 10 11 13 14 15 15 14 14 13 14 16 17 17 18 20 23 24 24 22 21 19 17 17 16 18 19 20 22 22 26 28 28 35 37 32 34 33 22 20 21 21 27 31 28 25 24 25 27 30 35 39 35 23 16 14 13 13 14 16 21 25 34 47 53 50 48 46 40 32 26 26 30
10 10 10 10 10 11 11 13 14 14 15 15 15 14 13 11 10 10 11 13 15 16 16 15 14 13 14 15 16 18 19 21 23 24 22 20 19 18 18 16 17 19 21 24 23 25 29 27 34 43 37 30 27 22 20 20 20 27 29 25 27 29 29 36 42 44 44 36 25 20 18 14 13 12 13 15 17 25 41 51 52 50 50 47 39 30 25 28
5 5 5 5 5 6 6 7 9 11 13 15 16 16 15 14 13 11 10 11 13 15 16 16 15 14 13 13 15 17 18 18 22 24 22 22 21 20 19 18 19 19 21 25 26 28 33 30 32 42 39 28 25 25 25 24 22 26 27 25 28 29 32 43 49 49 53 46 31 24 21 15 13 12 12 13 13 19 32 45 49 49 50 50 45 38 29 26
3 3 3 3 3 3 3 3 4 5 7 10 13 15 16 15 15 14 13 12 12 13 15 16 16 16 15 15 14 15 17 17 20 22 22 23 23 21 20 19 19 21 23 26 26 29 35 33 31 39 40 33 29 30 30 29 27 28 28 27 30 31 35 45 50 57 66 56 33 24 21 15 14 14 13 13 12 15 25 38 46 49 50 51 49 45 38 29
3 3 2 2 2 2 2 2 3 3 3 5 7 10 14 16 16 16 15 15 14 13 13 14 16 17 16 17 16 15 16 16 17 19 21 23 23 23 22 21 20 22 25 26 23 25 34 36 34 37 41 37 31 30 31 31 31 29 26 26 28 29 33 41 48 56 62 49 27 19 21 19 18 17 15 14 12 12 18 29 41 48 51 52 51 49 47 38
2 2 2 2 2 2 2 2 2 2 2 3 3 5 8 12 15 16 16 15 16 15 13 13 15 16 16 17 17 17 16 16 16 17 19 22 24 26 25 22 21 22 25 26 24 26 32 38 38 39 40 35 28 29 31 29 29 27 26 27 26 27 31 38 48 55 54 47 34 26 28 30 26 22 20 18 14 12 14 19 29 42 49 52 52 51 50 46
2 2 2 2 2 2 2 2 2 2 2 2 3 3 4 6 10 14 16 16 17 18 16 14 14 15 16 16 17 19 18 16 16 16 18 20 23 27 27 25 22 22 23 25 27 30 31 34 38 38 38 33 26 28 28 24 25 26 26 28 26 26 30 36 47 52 53 58 54 45 40 36 32 31 29 25 20 14 14 15 19 30 41 49 52 51 51 49
2 2 2 2 2 2 1 2 1 1 2 2 2 3 3 3 5 9 13 16 17 17 18 17 15 15 16 16 16 19 20 19 17 16 17 18 21 25 28 28 24 22 23 24 30 35 33 33 37 38 37 33 27 27 26 22 24 25 26 27 25 25 28 35 44 47 53 65 68 65 56 39 33 38 35 32 29 20 15 14 15 20 31 41 48 50 51 50
2 2 2 2 2 2 1 2 2 1 2 2 2 2 2 3 3 5 8 12 15 17 18 19 17 16 17 17 17 18 19 20 18 16 16 17 19 23 27 29 26 22 22 23 30 37 36 34 37 38 38 35 29 27 25 22 24 25 27 27 24 25 28 33 39 44 54 65 68 76 74 48 33 41 41 36 34 26 18 15 13 14 21 30 40 46 49 49
2 2 2 2 2 2 2 1 1 2 2 1 2 2 2 2 3 3 4 7 11 15 17 19 19 18 18 19 18 17 18 19 19 18 17 17 18 20 24 28 28 24 22 23 27 35 37 36 38 38 37 35 32 29 26 24 24 25 29 29 25 26 29 31 36 42 51 59 63 76 82 59 38 40 44 39 34 29 23 18 15 13 14 20 29 38 44 47
2 2 2 2 2 2 2 2 2 1 2 2 2 2 2 2 2 3 3 4 6 10 14 17 18 18 19 20 20 19 17 18 19 19 19 17 18 19 21 25 28 26 23 22 25 31 36 37 38 37 35 33 33 31 28 26 25 24 29 30 26 26 29 30 34 40 45 52 61 74 83 69 43 35 44 43 35 31 28 22 19 15 13 14 18 25 35 41
3 2 2 2 2 2 1 2 2 1 1 2 1 2 2 2 2 2 3 3 4 6 10 13 16 18 19 20 21 21 18 16 16 18 19 19 18 19 20 22 26 27 24 22 23 28 32 35 37 38 36 33 32 31 30 28 25 24 27 29 26 26 29 28 31 38 40 45 59 72 77 69 45 33 44 48 39 35 32 27 24 20 17 15 14 17 22 28
3 2 2 2 2 2 2 1 2 2 2 2 2 2 2 2 2 2 2 3 3 4 6 9 13 16 19 20 22 22 19 15 13 15 18 20 18 18 19 20 23 26 26 23 22 25 28 31 35 38 37 34 33 32 31 29 26 24 26 28 26 26 30 29 29 36 37 41 56 67 70 69 52 36 42 47 41 38 35 31 28 25 23 21 18 17 17 18
3 2 2 2 2 2 2 2 2 2 1 2 1 1 2 2 2 2 2 3 3 3 4 6 9 12 16 19 21 23 23 19 14 13 16 19 19 19 19 19 21 25 26 24 22 23 25 27 33 37 37 34 32 31 32 29 26 24 25 27 26 27 30 30 29 35 38 40 53 62 67 73 61 39 36 40 36 34 34 32 30 26 25 25 23 20 18 16
3 3 2 2 2 2 2 2 2 2 2 2 1 2 2 1 2 2 2 2 3 3 3 4 6 9 12 16 19 23 25 24 18 15 15 17 19 19 19 20 21 22 25 25 23 22 23 26 31 35 36 34 31 30 30 29 25 24 25 26 27 27 30 31 30 35 39 41 49 56 62 73 67 41 31 33 31 30 31 31 30 29 26 25 25 24 22 20
Wind_Speed
35 34 34 33 32 31 31 30 29 28 28 26 25 24 22 21 20 19 19 18 17 16 15 14 14 12 12 11 10 9 8 7 5 4 4 4 3 3 3 2 2 2 3 3 3 4 4 4 3 3 4 5 7 11 15 19 23 27 29 31 33 35 38 39 41 42 42 43 43 43 43 42 42 41 41 41 40 40 39 39 38 37 37 36 35 33 31 29
36 35 35 34 33 33 32 31 30 29 28 27 26 25 24 23 21 20 20 20 19 18 17 16 16 14 14 13 13 13 12 11 9 7 7 7 6 6 5 5 5 4 5 5 4 5 5 6 6 6 5 5 5 5 7 10 15 20 24 26 29 31 33 35 37 39 40 41 42 42 42 41 41 40 39 39 38 38 37 36 36 36 36 35 34 33 31 28
37 36 36 35 35 34 33 32 31 30 29 28 27 26 25 24 22 21 21 21 21 20 19 18 18 17 15 15 15 15 15 14 13 11 9 9 9 9 8 7 6 6 7 7 6 6 7 7 8 8 7 7 7 6 6 7 8 12 15 19 23 27 29 31 33 34 36 37 38 38 38 37 37 36 36 36 35 35 34 34 35 35 35 34 33 32 30 27
38 38 37 37 36 35 34 33 32 30 30 29 28 28 26 25 23 22 23 23 23 22 20 20 20 19 18 17 17 17 18 17 17 15 12 12 12 11 11 10 9 8 9 9 9 8 8 9 9 9 9 8 8 8 8 8 7 7 8 11 16 21 24 27 28 30 32 32 33 33 33 33 33 33 32 33 33 33 33 33 33 33 34 34 33 31 29 25
39 38 38 37 36 35 34 33 32 31 31 30 30 29 28 27 25 24 24 25 25 24 22 22 22 22 21 20 19 20 20 19 19 18 16 14 14 14 13 13 12 11 10 11 11 10 10 11 11 11 11 10 10 9 9 9 8 8 7 7 10 13 17 21 23 25 26 27 28 28 28 28 28 28 29 29 30 30 31 31 31 31 32 32 32 30 26 23
39 38 38 37 36 36 35 34 33 32 32 32 32 31 30 28 27 26 27 27 26 26 25 24 24 25 24 24 23 23 22 21 21 21 19 17 17 17 16 16 16 14 13 13 13 13 13 13 13 13 13 12 11 11 10 10 10 9 8 7 7 8 10 13 16 18 20 21 22 22 23 22 23 24 25 26 26 26 26 26 26 27 29 29 29 27 25 23
39 39 38 38 37 37 36 36 35 34 34 34 34 33 32 31 29 29 29 29 28 28 28 27 27 27 27 27 26 26 24 23 23 24 23 21 20 20 19 18 19 18 17 16 15 15 15 15 15 15 15 14 14 13 12 11 11 10 9 7 6 6 6 7 9 12 14 16 17 17 17 18 19 20 21 21 20 20 21 21 23 24 26 27 27 24 21 18
40 40 39 39 39 38 38 38 37 37 36 37 37 36 35 34 32 32 32 32 31 30 30 30 29 29 29 29 30 29 27 25 26 26 26 25 23 23 22 21 21 21 20 19 18 18 18 17 17 16 16 17 16 16 15 13 12 12 11 9 8 7 6 6 6 8 10 11 11 11 12 13 14 15 15 16 17 17 18 19 21 23 24 25 24 20 16 15
42 42 42 41 41 41 41 41 40 40 40 40 40 40 38 37 36 36 35 35 34 33 32 32 32 31 31 31 32 33 30 27 28 28 28 28 26 26 25 24 23 23 22 22 20 20 19 18 17 18 19 20 18 18 17 16 15 14 12 11 10 9 8 8 8 8 9 9 10 10 10 11 11 12 13 14 15 15 17 18 20 21 23 24 21 17 14 14
45 45 44 44 44 44 44 44 44 43 43 43 44 43 42 41 40 39 39 38 37 36 35 34 34 33 33 33 34 36 33 29 30 30 30 30 30 29 28 27 25 24 23 23 23 22 20 19 20 21 22 21 20 20 19 19 18 16 15 13 12 11 10 10 10 10 10 11 11 11 10 11 11 11 12 12 13 14 15 17 18 20 22 21 18 15 13 12
48 48 48 48 47 47 48 47 47 46 46 46 46 46 45 44 43 42 41 41 40 39 38 37 36 36 35 35 36 38 35 31 33 33 32 32 32 31 30 29 28 26 25 25 25 22 20 21 23 24 24 22 21 22 22 22 20 19 18 16 14 13 13 12 12 11 12 13 13 12 11 11 11 11 11 12 12 14 15 16 17 19 19 19 17 13 12 11
51 51 50 50 50 50 50 50 49 49 49 49 49 48 47 46 46 45 44 43 43 42 41 40 38 38 37 37 38 40 37 34 35 35 34 34 33 33 32 31 30 29 27 26 25 23 21 24 26 26 26 24 24 25 25 24 22 22 21 19 16 15 15 15 13 13 13 13 14 13 12 11 11 11 11 11 13 14 15 15 16 16 17 18 16 12 11 12
54 53 53 53 53 52 53 53 52 52 52 51 51 51 50 49 49 48 47 46 46 46 45 43 42 41 40 39 41 42 39 37 37 37 37 36 35 34 33 33 32 31 30 28 27 25 24 26 28 27 27 27 28 28 28 26 25 24 23 22 19 17 18 17 15 14 13 13 14 14 13 11 11 11 11 12 13 14 15 14 14 13 15 16 15 13 13 13
57 57 56 56 55 55 56 56 56 55 55 54 54 54 53 52 51 51 50 49 48 48 47 46 45 44 42 41 42 43 41 40 39 39 40 38 36 35 34 34 33 33 32 31 29 28 28 28 28 29 30 30 30 30 29 29 28 27 26 24 22 21 21 19 17 15 14 14 14 14 13 12 11 11 11 11 13 14 14 13 11 10 12 15 15 15 14 14
58 58 58 58 57 56 57 58 58 57 56 56 56 55 55 54 54 53 52 51 51 50 49 49 47 46 45 42 43 45 43 41 40 42 42 39 37 36 36 36 36 36 35 34 33 31 30 30 30 32 33 33 32 31 32 32 31 30 29 27 25 24 24 22 20 17 15 14 14 14 13 12 11 10 10 11 12 13 13 10 8 8 10 14 16 16 15 14
62 62 62 61 60 59 60 61 61 60 59 58 58 57 57 56 56 55 54 53 53 52 52 51 50 49 48 45 45 47 45 42 42 44 44 41 38 37 39 39 39 38 37 36 35 33 33 33 33 35 35 35 35 34 35 35 34 33 31 30 28 27 27 25 23 20 17 15 15 14 14 13 11 10 9 10 11 11 10 8 7 7 10 13 15 17 16 15
67 67 66 66 65 64 64 64 64 64 62 62 61 60 60 59 58 58 57 56 55 55 54 53 53 52 51 48 46 48 48 44 44 46 45 42 40 40 42 42 40 39 39 39 38 37 36 36 36 37 37 37 38 37 38 39 37 34 33 32 30 30 30 28 25 23 19 16 15 15 14 13 12 10 9 9 9 9 8 7 8 8 10 13 14 16 17 17
68 68 68 68 67 65 64 65 65 65 64 63 62 61 61 60 60 59 59 58 57 57 55 54 55 54 54 51 47 48 49 46 45 47 46 43 42 42 43 43 42 41 41 41 41 39 39 38 38 38 38 39 40 41 42 43 38 35 34 34 33 33 33 31 28 26 22 18 16 15 15 14 13 11 10 8 8 8 8 8 9 9 11 13 14 16 17 19
67 67 67 67 66 65 64 64 64 65 64 63 62 62 61 60 60 59 59 58 58 57 55 55 55 55 55 53 48 49 50 48 46 47 47 45 44 43 43 43 43 42 42 42 42 41 40 39 38 39 41 42 43 44 45 44 39 36 36 35 35 35 36 34 31 29 25 21 18 16 16 16 15 13 11 9 7 7 7 8 9 10 12 13 15 16 17 19
67 67 68 68 67 65 64 64 65 66 66 64 63 63 63 62 61 60 60 60 58 58 56 56 57 56 56 55 51 50 51 49 47 47 47 45 44 44 43 43 44 44 43 42 41 41 40 40 42 43 44 43 43 44 44 43 40 38 37 36 37 37 38 37 34 32 29 24 20 18 17 17 17 15 13 12 9 7 6 7 9 11 13 14 16 17 18 19
70 70 71 71 71 69 68 67 68 68 69 68 67 66 65 66 64 63 63 62 61 60 59 58 59 59 59 57 54 51 51 50 49 48 48 47 45 45 45 45 44 45 43 41 40 41 42 44 45 44 42 42 42 43 43 43 41 39 39 39 39 40 40 39 37 35 32 28 24 21 19 19 19 17 15 14 12 8 7 6 8 11 14 15 16 17 18 19
74 74 75 76 76 74 73 72 72 72 72 72 71 70 68 69 68 66 65 65 65 63 62 62 62 63 62 59 57 53 50 52 52 50 50 48 46 47 47 45 45 45 43 40 42 43 45 46 43 41 40 40 40 41 43 44 42 41 42 42 43 44 43 41 40 38 35 32 28 24 23 21 20 19 17 16 14 10 8 7 8 10 13 16 17 17 18 19
78 78 79 80 80 79 77 76 76 75 75 75 74 73 72 71 71 69 67 67 68 66 65 66 64 65 66 61 59 55 53 55 54 52 51 49 48 49 48 46 46 45 42 42 44 45 46 44 39 39 39 38 40 41 43 44 42 42 44 46 48 49 47 44 42 40 38 36 31 27 26 23 22 20 18 18 16 13 10 8 8 9 12 16 18 18 18 19
81 81 81 82 83 82 81 80 79 78 78 78 77 76 75 75 74 73 71 70 71 70 68 67 66 67 68 65 60 57 56 57 55 54 54 51 50 50 49 48 47 43 43 45 45 44 45 41 38 39 39 39 41 41 43 44 44 44 45 49 51 51 49 46 43 43 42 37 32 30 27 24 24 22 19 19 18 15 13 9 8 10 12 16 19 19 18 19
81 81 82 82 83 84 83 82 81 79 79 79 79 78 77 77 76 75 74 72 71 74 72 69 68 70 70 67 62 59 60 59 57 57 56 53 51 51 51 50 45 43 45 46 44 45 45 41 38 39 39 39 40 41 43 44 44 44 44 49 51 50 48 45 44 45 42 37 34 31 29 28 26 24 22 21 19 18 16 12 9 10 12 14 17 19 19 19
83 84 84 85 85 85 86 84 83 82 80 80 79 79 78 78 77 76 75 73 71 74 75 71 69 71 71 68 64 62 61 60 60 58 56 55 53 51 51 49 46 46 47 45 43 44 45 42 39 39 40 40 40 41 43 42 42 41 42 47 48 46 46 45 44 44 41 38 35 32 32 31 28 27 25 22 21 20 18 14 11 11 12 13 14 17 18 20
88 87 88 89 88 89 89 88 88 86 84 82 81 81 80 79 79 77 76 75 72 73 75 73 70 69 71 70 66 64 60 60 62 58 55 56 55 52 50 48 48 48 47 45 42 45 47 44 40 40 40 40 40 42 41 39 39 39 41 43 44 43 43 43 42 41 41 41 37 35 35 33 32 31 28 24 23 23 21 18 14 12 13 14 14 15 17 20
90 90 90 92 92 91 92 91 91 90 88 87 85 83 83 82 82 81 80 78 74 73 75 75 72 69 70 71 69 65 60 61 63 58 56 59 57 53 50 49 50 51 50 46 44 49 49 43 39 39 38 38 40 40 36 35 36 37 38 39 39 40 39 39 39 40 43 42 39 39 39 37 37 35 30 27 26 25 24 20 16 14 14 15 15 16 18 20
91 91 91 92 93 93 93 92 93 93 92 91 88 86 86 85 84 84 84 82 77 74 75 76 75 72 70 71 72 68 62 63 64 60 59 60 58 55 51 52 54 55 52 47 47 50 47 42 40 38 35 37 40 38 34 35 36 36 36 35 36 37 37 37 38 40 44 43 43 46 44 41 42 37 32 31 31 29 25 21 19 16 15 14 14 16 18 20
90 90 90 91 92 93 93 93 93 93 93 92 91 89 88 87 87 86 86 83 80 78 77 77 77 76 74 73 73 71 67 65 65 63 62 61 61 59 55 56 56 55 52 49 48 49 48 45 42 39 37 39 40 38 35 36 36 34 33 33 35 36 36 37 38 41 45 47 50 52 49 46 45 39 37 37 36 31 24 22 22 19 16 14 12 13 15 19
91 91 91 91 92 92 92 92 92 92 92 93 92 90 89 88 88 88 86 83 82 82 80 79 79 78 77 75 74 73 71 68 67 67 64 63 64 62 58 57 55 54 53 51 49 48 50 47 43 41 41 42 41 39 36 35 33 32 31 32 34 34 35 36 39 41 46 51 55 54 50 47 46 41 40 41 38 30 24 25 25 20 17 15 13 12 13 16
94 94 93 93 93 93 93 93 92 92 91 92 92 91 90 89 88 88 86 84 86 85 82 81 80 79 79 78 77 75 74 72 70 69 67 65 65 64 61 59 58 56 54 52 51 51 52 50 46 44 45 44 41 39 36 33 31 31 31 32 32 32 33 35 38 42 48 53 55 53 48 47 48 44 41 42 38 32 28 27 26 22 19 17 14 12 12 13
97 97 96 96 96 95 95 95 95 94 92 92 92 91 91 89 87 86 87 88 88 85 84 83 81 81 81 80 80 78 77 75 72 71 70 68 67 66 65 63 62 60 58 58 57 55 55 54 49 47 47 45 41 40 38 34 34 33 31 31 31 31 32 34 38 41 46 50 52 49 46 49 51 45 42 42 38 34 31 28 27 25 22 19 16 14 13 13
100 99 99 98 98 97 97 97 97 96 95 94 94 93 92 90 88 87 87 87 85 84 85 85 84 84 84 83 82 80 80 78 75 74 73 71 69 67 67 66 64 62 60 60 59 57 58 54 50 49 50 48 46 44 42 39 37 34 30 29 28 28 30 33 35 37 41 45 46 45 46 51 52 46 43 42 39 36 33 31 29 26 24 21 19 17 16 14
102 101 100 99 99 99 98 98 98 97 97 97 96 95 93 92 93 92 88 84 82 83 85 85 87 88 87 86 85 84 83 81 78 77 75 73 71 69 69 68 67 66 63 60 60 59 57 54 52 52 53 52 50 47 44 41 36 33 29 26 25 27 30 31 31 33 36 40 42 43 46 50 52 48 45 45 43 40 37 34 31 28 26 24 22 20 19 17
102 101 101 100 99 98 98 98 98 98 98 98 97 97 94 94 95 94 89 85 84 84 84 86 88 89 90 89 88 87 86 84 82 80 78 75 74 72 71 71 70 69 64 60 61 60 58 56 54 54 54 52 51 48 45 40 37 34 29 27 28 29 28 26 28 30 33 37 41 43 45 49 51 50 49 48 45 42 39 36 34 31 28 27 25 23 22 20
104 104 104 103 101 100 99 99 98 97 98 98 98 97 96 95 95 92 89 87 87 87 87 88 88 88 89 90 90 89 87 86 85 84 82 79 77 74 72 71 70 69 65 61 61 62 61 58 55 57 56 54 54 51 46 43 39 34 31 30 30 27 24 23 26 29 30 35 40 43 45 48 51 51 51 50 47 44 41 38 37 34 31 29 29 26 24 23
106 106 107 107 106 104 103 102 101 100 99 99 99 98 97 95 93 91 89 89 89 90 90 90 88 87 88 88 89 89 89 89 88 88 86 83 80 76 73 72 71 70 67 65 64 64 63 60 58 60 60 58 58 54 48 46 40 36 36 34 29 26 24 23 25 27 29 34 40 41 43 46 50 52 52 50 49 47 44 41 40 38 35 33 32 30 27 25
103 103 104 104 105 105 104 104 104 104 104 103 102 100 98 96 93 91 90 90 90 91 92 92 91 89 88 87 87 88 91 91 90 90 89 85 81 77 74 73 72 71 69 69 68 65 65 63 61 63 64 62 59 53 48 46 41 40 40 34 30 31 28 25 25 27 29 33 38 38 40 44 47 49 49 48 48 48 46 45 43 41 39 37 35 32 29 26
95 94 95 94 94 95 96 98 100 103 104 105 106 105 103 99 96 93 91 90 91 91 92 92 91 90 89 88 87 89 91 91 91 92 90 85 81 79 77 75 74 73 72 71 70 67 67 66 64 66 66 63 57 51 49 47 43 42 40 36 35 35 32 29 28 27 27 32 37 37 39 42 43 44 45 47 48 48 47 47 45 42 40 39 36 33 31 29
86 85 84 83 82 82 84 86 90 93 97 101 104 106 106 104 101 98 94 92 92 91 92 92 92 90 90 89 89 90 91 91 92 92 89 86 84 82 79 77 75 75 75 75 74 70 70 68 67 67 67 63 58 54 52 51 47 46 45 42 41 40 37 35 32 30 30 33 37 37 37 39 39 41 43 45 48 49 49 48 47 45 43 41 38 35 33 32
79 77 76 74 73 72 72 74 77 80 86 91 96 101 105 107 106 104 99 96 93 92 91 91 92 91 91 91 91 92 92 92 91 91 90 88 86 82 80 78 77 78 78 78 75 72 71 71 69 68 68 66 62 58 55 54 52 50 47 44 43 41 40 37 34 34 34 36 38 37 36 37 37 38 40 42 45 48 50 50 50 48 47 45 43 40 37 35
72 70 69 68 66 65 65 65 66 69 74 80 86 92 98 104 107 108 105 101 97 95 93 91 91 92 92 91 91 92 93 93 92 91 90 88 86 84 83 81 80 81 81 80 76 73 74 74 72 71 71 70 65 60 58 57 54 50 46 44 43 41 40 39 38 38 37 37 37 36 35 34 34 35 36 38 42 46 49 52 52 51 51 49 46 44 42 40
66 64 62 62 61 60 59 59 59 61 64 68 75 82 89 96 102 107 108 106 103 100 97 93 91 92 92 91 91 92 94 94 94 92 90 89 88 87 85 83 82 82 82 80 78 77 77 77 76 75 73 71 66 62 61 58 53 49 46 45 45 44 44 42 42 41 38 35 33 33 32 32 31 31 31 33 37 43 48 51 53 53 53 52 50 47 45 44
59 58 56 55 55 54 54 54 55 55 56 60 65 72 79 87 94 102 107 108 107 104 102 98 94 92 93 92 92 93 95 95 95 93 91 90 89 89 87 86 84 83 82 81 80 81 80 79 78 77 74 71 67 64 61 57 52 49 47 46 47 46 45 45 45 44 39 35 33 31 32 33 31 28 29 30 33 39 45 50 52 54 54 54 52 50 48 47
52 53 52 50 49 50 49 49 50 50 51 53 58 63 69 77 85 94 101 107 108 107 106 105 100 95 94 94 93 94 95 96 95 93 92 91 90 90 89 88 86 84 84 83 84 85 83 81 80 78 75 73 69 65 62 58 54 51 48 48 48 48 47 48 48 45 41 39 37 34 35 37 34 30 30 32 33 36 41 46 50 52 53 54 53 52 51 49
48 48 49 47 45 45 45 45 45 45 46 49 53 56 61 68 76 85 93 101 106 108 109 109 106 101 97 96 96 95 95 95 94 93 93 92 90 91 91 90 89 86 85 86 86 87 86 84 83 81 78 75 71 67 64 60 57 55 52 51 52 51 50 50 49 47 45 42 39 38 40 42 38 33 32 33 33 34 36 39 44 48 51 52 52 52 52 50
47 44 44 44 43 42 41 41 41 41 43 45 49 52 56 61 68 75 84 94 101 106 108 109 108 105 102 99 99 97 95 94 94 93 94 93 92 92 92 92 91 89 88 88 88 88 88 87 85 83 80 77 74 70 67 63 60 58 55 54 55 54 52 52 52 51 49 45 43 43 44 46 42 35 34 34 33 32 33 35 38 42 46 49 51 52 52 51
45 43 41 40 39 39 38 37 37 38 39 42 44 48 52 56 61 68 76 86 94 101 105 108 108 108 106 104 102 100 97 95 94 93 93 93 93 93 93 93 93 92 90 89 89 89 90 88 86 84 81 78 76 73 70 66 63 60 58 57 57 56 54 54 54 52 50 48 46 46 47 48 45 38 36 36 32 30 31 31 33 36 39 43 46 48 50 51
43 41 39 38 36 35 35 34 34 34 36 38 41 44 48 52 56 61 69 78 87 95 101 105 107 108 109 107 105 103 99 95 92 91 91 93 94 94 93 93 94 93 92 91 90 91 90 88 87 85 83 81 79 76 73 69 66 63 61 60 59 58 56 55 54 53 51 49 49 48 47 49 47 42 39 37 34 32 31 31 32 33 34 36 40 43 46 49
40 38 36 36 34 33 33 32 31 30 32 35 38 40 44 49 53 57 63 71 80 88 95 101 104 107 109 108 107 105 101 97 92 89 91 93 94 94 93 92 93 94 94 92 91 92 91 88 87 88 86 84 82 79 76 72 69 66 63 62 61 60 58 56 55 54 52 51 51 49 48 49 49 45 42 39 36 33 33 33 33 32 33 34 35 38 41 44
39 36 34 33 32 31 30 29 28 28 29 31 35 37 41 45 49 54 58 65 74 81 89 95 100 104 107 108 108 107 105 101 95 91 91 92 93 93 93 93 93 95 95 94 93 93 91 89 89 90 89 87 85 81 78 75 72 68 65 64 64 63 61 59 58 56 54 53 51 50 49 49 49 46 43 40 36 34 34 34 34 33 32 32 33 34 36 38
Wind_Direction
261 262 263 264 265 266 267 268 268 268 268 267 266 265 264 262 261 260 259 258 254 249 248 250 253 258 267 272 276 279 281 280 278 275 273 275 257 226 209 210 238 269 282 293 304 308 307 302 293 276 262 252 246 245 244 243 243 242 242 241 242 243 244 245 246 247 248 250 252 253 255 256 258 260 262 265 266 268 269 271 273 275 275 276 276 277 277 278
262 263 264 265 265 266 266 266 266 266 265 265 264 263 262 261 259 258 257 257 256 252 249 249 250 251 257 265 271 274 275 275 273 269 265 264 259 249 237 220 221 237 255 267 275 282 287 289 290 287 283 278 273 264 256 251 248 247 245 244 243 243 244 245 246 247 248 249 251 253 255 256 258 260 262 264 265 267 269 272 273 274 274 275 275 276 276 276
264 264 265 265 265 266 265 265 264 264 262 262 261 260 259 258 257 256 255 255 255 254 252 252 251 251 252 258 265 270 272 272 270 268 265 261 258 257 253 242 233 233 241 253 261 267 274 278 279 279 281 281 279 278 274 269 261 257 252 248 245 245 245 245 246 246 247 249 250 252 254 256 258 260 261 263 265 267 269 271 272 273 274 274 275 275 275 274
264 265 265 265 265 265 264 263 263 262 261 260 259 258 257 256 254 253 254 254 255 254 253 255 256 255 253 254 259 264 268 270 270 268 264 261 259 257 258 255 248 241 240 245 251 258 266 271 275 275 275 275 275 273 273 274 273 270 262 253 248 246 246 246 247 247 248 249 249 251 252 255 257 260 262 264 266 268 270 271 272 273 274 274 274 273 273 273
264 265 264 265 264 264 263 262 261 261 260 260 258 257 255 254 252 251 252 252 254 254 253 255 258 258 258 257 257 259 262 266 268 267 263 260 259 256 256 258 255 249 244 244 247 253 258 264 269 273 275 273 273 271 268 268 271 274 274 266 257 251 248 248 249 249 250 250 250 251 252 254 257 260 263 266 268 269 270 271 272 273 274 274 273 272 271 269
264 264 264 264 264 264 263 262 261 261 260 260 259 257 256 254 252 251 251 251 252 254 254 254 256 259 260 260 259 258 259 261 264 265 263 259 258 257 255 257 258 255 249 247 247 248 251 257 262 267 271 273 273 272 269 267 267 269 272 273 273 267 259 254 251 251 252 253 253 253 255 257 259 261 263 264 266 267 269 271 272 273 273 273 272 271 270 269
263 263 263 263 263 263 263 262 262 261 261 261 260 259 258 256 254 253 252 252 252 253 254 254 254 257 260 261 260 259 257 258 259 262 263 260 258 258 258 257 259 259 255 252 249 247 248 251 255 260 265 269 271 270 270 269 267 266 265 264 266 272 273 266 257 255 255 256 257 259 260 260 259 259 259 261 262 265 268 270 272 274 274 273 272 270 268 266
263 263 263 263 263 263 264 263 263 263 262 263 263 262 261 259 258 256 255 254 253 253 254 255 254 255 257 260 260 258 257 256 257 258 261 261 258 258 258 257 258 260 259 256 251 250 250 250 252 258 262 263 265 267 268 268 267 266 264 261 256 254 257 256 253 251 252 253 255 255 256 256 257 259 261 263 266 269 273 276 278 278 277 275 270 264 259 256
263 263 263 263 263 264 264 264 264 264 264 264 264 264 263 262 261 260 259 257 255 254 254 255 255 255 255 257 259 258 256 255 256 256 258 259 258 258 258 257 257 258 259 258 255 252 252 252 252 256 257 256 259 263 265 266 266 264 263 261 254 248 246 245 243 244 246 247 247 247 249 254 259 264 268 272 274 277 280 283 285 284 281 275 266 254 247 247
263 263 264 264 264 265 265 265 265 265 265 266 266 266 265 264 263 262 262 261 259 257 256 256 256 255 255 255 257 258 255 254 255 255 256 257 257 257 258 257 256 256 256 256 255 252 252 252 249 250 252 254 257 260 262 263 263 263 262 258 255 249 245 244 243 245 248 250 250 250 252 258 263 268 273 278 281 283 287 291 291 289 283 273 259 241 237 237
265 265 265 265 265 266 266 266 266 266 266 266 266 266 266 266 265 264 263 263 262 260 258 257 256 256 256 255 256 257 256 254 255 255 255 256 256 256 257 256 255 253 252 252 253 253 251 248 246 248 251 253 255 257 258 258 259 261 261 258 255 251 247 244 243 245 250 255 256 256 258 263 269 274 280 285 289 291 295 298 297 291 281 266 248 229 224 220
265 265 265 266 266 266 266 266 266 266 266 266 267 266 266 266 265 265 264 264 263 262 260 258 257 257 256 256 257 257 257 255 255 255 255 254 255 255 256 255 254 253 250 249 251 251 248 246 246 248 250 250 251 252 253 254 255 257 258 257 255 253 250 246 243 244 250 257 262 265 266 270 274 281 286 291 295 298 301 303 302 292 274 257 238 213 201 198
267 266 266 266 266 266 267 266 266 266 266 266 266 266 266 266 266 265 265 264 264 264 262 260 259 258 257 257 258 258 257 256 255 255 254 253 254 254 255 255 254 253 251 248 248 248 246 246 248 249 250 249 247 249 251 252 252 254 254 256 255 253 251 249 245 244 247 254 262 266 268 271 275 282 288 294 300 303 305 308 305 288 264 244 219 188 180 184
268 268 267 267 267 267 267 267 266 266 266 266 266 266 266 266 265 265 265 264 264 264 263 262 260 259 258 257 259 259 257 256 256 256 254 253 254 255 254 254 254 252 251 248 246 245 245 246 249 251 250 249 247 248 250 251 251 252 253 253 253 252 252 251 248 245 245 249 255 261 265 269 274 281 288 297 304 307 310 313 307 282 247 222 196 171 169 176
268 268 268 267 267 267 267 268 267 266 266 266 266 266 266 266 265 265 265 264 264 264 263 263 261 260 259 257 259 259 257 257 257 256 256 254 254 255 254 252 251 251 250 250 248 246 246 246 248 250 250 250 250 249 249 250 250 249 250 250 250 251 253 252 249 245 242 244 249 255 259 263 268 276 286 298 307 312 315 314 300 266 224 203 184 164 165 175
268 267 267 267 267 267 267 268 268 267 267 266 266 266 266 266 266 266 265 264 264 264 264 264 263 261 260 258 258 260 258 257 257 257 257 256 254 253 254 251 250 252 253 252 251 249 247 246 246 248 249 250 251 249 247 247 247 247 247 248 249 250 251 251 249 247 241 241 245 251 256 259 262 268 280 295 308 315 316 301 273 243 212 198 182 165 165 180
268 268 267 267 267 266 266 267 267 266 266 266 266 266 266 266 266 266 266 265 265 264 264 264 264 262 261 258 258 260 259 256 257 258 257 257 255 253 253 253 252 252 253 253 251 249 248 246 246 246 248 249 249 249 248 246 245 246 247 248 248 250 250 249 249 248 242 239 242 247 252 255 257 261 270 287 303 312 305 279 254 230 210 199 187 171 170 183
268 267 267 266 266 265 265 265 266 265 265 264 265 265 265 265 265 265 265 265 264 264 264 264 264 263 261 259 258 259 259 257 256 258 258 257 255 254 254 255 254 253 252 252 252 250 249 247 246 247 247 247 247 247 246 245 244 244 245 246 246 248 250 249 248 248 244 239 237 241 247 250 253 255 259 272 291 304 299 273 250 228 211 201 191 180 176 185
267 267 266 266 265 264 264 264 264 264 264 263 264 264 264 264 264 264 264 264 264 264 263 263 263 262 262 260 258 258 259 257 256 258 258 257 257 256 255 256 256 254 252 252 252 251 250 248 246 245 244 243 243 244 244 245 244 244 244 245 245 246 249 249 247 247 245 240 235 235 240 245 247 249 250 256 272 293 295 274 250 228 211 201 193 186 182 186
267 267 266 266 265 264 263 263 263 264 264 263 263 263 264 264 263 263 263 263 263 263 262 262 262 262 262 261 258 257 259 258 257 258 259 258 258 257 256 256 255 254 253 252 252 252 251 249 245 242 241 241 242 244 246 247 246 245 245 245 244 245 247 249 248 247 244 241 235 232 235 240 243 244 245 247 251 268 283 273 251 232 214 204 195 190 187 188
268 267 267 266 266 264 263 263 263 263 264 264 263 263 263 263 262 262 262 262 262 262 262 261 262 262 261 260 259 257 259 261 259 258 259 258 257 258 256 255 255 256 255 254 254 252 249 246 244 242 242 242 243 245 247 247 245 244 245 244 243 243 244 246 247 246 243 240 236 232 232 235 239 241 242 244 242 248 269 269 249 233 220 210 201 195 192 190
268 268 268 267 266 265 264 263 262 262 263 263 263 262 262 262 262 261 261 261 261 260 261 260 260 261 260 259 260 258 258 260 259 257 258 258 258 258 257 256 256 256 256 255 253 250 247 246 245 245 243 243 244 245 246 245 241 240 241 241 240 240 240 241 243 244 242 239 235 232 231 232 237 239 239 244 241 238 254 263 247 231 222 216 210 203 198 194
268 268 267 267 267 266 264 263 262 262 262 262 262 262 261 261 261 260 260 260 260 259 259 259 259 260 260 259 258 259 258 258 259 259 258 258 258 257 258 257 255 255 255 253 251 249 249 247 246 245 243 242 242 242 243 243 240 237 238 238 237 236 236 236 238 241 241 237 233 231 232 232 236 238 237 241 242 237 240 251 249 229 217 216 215 210 204 198
268 268 267 267 266 265 264 263 262 261 261 261 260 260 260 260 260 259 259 258 260 259 257 258 258 259 259 258 258 258 258 258 259 259 258 256 256 256 256 255 254 255 253 251 250 250 249 247 245 244 242 241 240 240 241 241 238 234 234 236 236 235 234 233 235 238 239 236 233 233 233 232 235 237 235 237 241 239 236 238 244 232 218 216 216 214 209 203
267 267 267 266 266 266 265 263 262 261 260 260 260 259 259 259 258 258 258 257 258 259 257 256 257 258 258 258 257 257 257 257 256 256 256 255 254 255 255 255 255 253 251 250 250 250 250 247 244 244 243 241 241 241 241 240 239 235 234 237 237 236 236 235 234 237 239 238 235 235 235 233 233 235 234 235 238 240 237 233 236 234 222 219 219 217 213 206
267 266 266 265 265 265 264 263 262 261 259 259 258 258 258 257 257 256 256 255 255 257 257 255 254 256 257 257 256 255 255 256 255 254 255 256 254 253 253 254 253 249 249 249 249 251 251 247 244 244 244 242 241 241 241 240 240 238 236 238 239 237 237 236 236 238 240 240 237 236 237 235 234 235 235 234 235 238 238 232 231 232 222 217 218 219 216 208
267 266 265 265 264 264 263 263 262 261 259 258 257 257 256 256 256 255 254 253 252 253 256 255 253 254 256 256 254 253 253 253 253 252 252 252 250 249 249 250 250 248 247 246 246 246 247 245 242 243 243 243 243 243 242 241 242 240 237 238 239 238 237 236 236 237 239 240 238 237 239 237 234 235 234 233 234 236 238 232 227 229 223 214 215 215 214 209
267 266 265 265 264 263 263 262 262 261 259 258 256 255 255 255 254 254 253 252 250 250 252 254 253 251 253 255 254 251 250 250 251 250 248 249 249 248 246 246 245 244 244 243 241 242 245 246 244 244 246 248 247 246 244 243 244 242 238 238 240 239 236 234 233 234 237 238 238 237 237 236 234 232 230 232 233 233 234 231 226 226 223 215 212 213 213 210
268 267 265 265 264 263 262 262 261 261 260 258 256 255 254 253 253 252 252 251 250 248 249 251 252 250 250 251 253 251 247 247 249 248 246 248 248 246 244 241 240 242 244 243 241 244 248 248 246 246 247 248 248 245 242 242 241 239 237 237 238 237 233 230 228 230 232 235 236 234 232 233 233 228 227 230 231 230 229 230 228 224 223 217 212 213 215 215
268 267 265 264 264 263 262 261 260 260 260 259 257 255 253 252 251 250 250 250 249 247 246 247 249 250 248 248 250 250 247 245 246 246 245 245 246 244 242 240 241 243 244 243 242 245 247 246 245 245 242 241 244 242 239 240 239 238 236 235 235 234 230 226 224 225 227 230 231 230 227 229 231 225 225 229 229 226 226 229 229 222 220 218 212 213 216 219
267 266 265 264 263 263 262 261 260 259 259 259 258 256 254 252 251 250 249 249 248 246 245 245 246 247 247 247 247 248 247 245 244 245 244 244 245 245 243 242 243 243 243 244 243 243 245 245 243 242 239 238 241 241 239 239 239 237 234 234 233 232 229 226 223 222 224 227 230 229 226 229 231 225 224 229 228 224 224 228 227 219 216 217 212 212 215 217
267 266 266 264 264 263 262 262 261 260 259 258 258 257 255 253 251 250 249 247 245 245 245 244 243 244 246 246 245 245 246 245 243 243 243 242 242 243 241 239 239 238 237 237 236 236 239 240 237 237 237 237 238 239 239 238 237 235 232 232 232 231 228 226 224 222 224 227 229 229 226 229 232 226 225 230 227 222 224 227 226 219 213 214 211 211 214 216
269 268 267 266 265 264 263 263 262 261 260 258 257 257 256 254 252 250 248 246 245 245 244 243 242 242 243 244 244 243 243 243 242 242 241 240 240 240 239 238 237 236 234 232 232 232 235 237 235 234 236 235 233 234 235 232 231 231 229 229 230 230 228 226 225 224 225 229 230 228 226 229 232 227 225 230 226 222 225 227 227 222 215 213 210 210 213 214
271 270 269 268 267 266 265 264 263 262 261 260 258 257 256 256 254 251 248 247 245 244 243 242 241 240 240 241 242 242 242 242 241 241 240 239 238 238 238 239 238 237 235 234 234 233 234 237 236 232 231 231 228 228 229 228 228 230 229 230 232 232 231 228 228 227 228 231 231 228 226 229 232 228 225 229 226 222 224 226 227 226 220 214 210 211 212 209
274 273 272 270 269 268 267 266 265 264 262 261 259 258 256 255 254 252 249 248 246 244 242 241 240 239 238 239 239 240 241 241 240 239 239 238 237 235 235 235 235 234 232 231 232 232 233 235 235 231 230 231 231 230 230 229 228 230 229 228 229 230 229 229 229 229 229 231 231 227 225 228 230 227 224 226 224 222 222 222 225 226 224 218 212 212 213 209
277 276 275 273 271 270 268 266 265 264 263 262 261 259 257 255 253 252 251 249 246 244 242 240 239 238 238 237 237 238 239 239 239 239 237 236 235 233 233 233 233 234 233 230 230 231 230 231 232 233 232 233 234 233 233 230 227 227 226 221 223 228 230 231 231 229 228 230 229 225 223 225 227 226 223 223 222 221 221 220 222 224 225 222 217 213 212 211
278 277 276 275 273 271 269 267 265 264 262 261 260 259 258 256 254 253 251 248 246 244 242 240 238 237 237 237 237 237 237 238 238 238 236 235 234 233 233 232 232 233 233 230 229 229 228 227 227 230 230 229 230 230 230 228 225 223 222 220 225 233 233 231 230 227 226 227 227 224 221 222 224 224 222 221 219 219 220 220 221 222 223 224 222 216 212 211
277 276 275 274 272 270 268 267 265 263 261 260 259 258 258 256 255 253 250 247 245 244 242 241 239 237 237 236 236 236 236 236 236 236 236 234 233 232 232 231 231 230 229 228 227 226 226 224 223 227 228 226 227 227 226 225 221 218 220 220 222 227 224 221 222 222 223 227 228 225 223 223 223 223 221 218 217 217 217 218 220 220 220 224 224 218 213 211
278 276 274 272 270 268 266 264 262 260 258 258 257 257 256 255 254 252 250 247 244 243 242 241 240 238 236 235 235 235 234 234 234 235 236 235 234 232 231 230 230 229 227 226 226 225 225 223 221 225 227 226 227 227 226 226 221 217 220 218 216 219 215 210 213 217 223 229 230 228 225 225 224 224 223 219 217 217 217 218 219 218 219 222 223 221 216 213
282 280 277 274 271 268 265 262 259 256 254 253 253 253 254 253 253 251 249 246 244 242 241 240 240 238 236 235 234 234 234 233 233 234 234 234 233 231 229 228 228 227 225 224 224 223 223 223 220 223 227 227 226 225 225 226 222 219 220 217 215 215 208 202 206 211 218 227 230 228 227 226 224 224 224 221 218 217 218 220 220 219 219 221 223 223 220 216
286 283 280 277 273 269 266 262 258 255 252 250 248 248 249 250 250 249 248 246 243 241 240 239 239 238 236 235 233 232 233 233 232 232 233 232 231 230 228 226 226 226 224 223 222 220 221 222 220 221 225 226 224 222 221 223 221 218 217 215 214 212 204 199 200 203 211 223 228 228 228 228 224 223 224 221 217 216 218 220 221 220 220 221 221 222 222 220
288 286 283 280 276 272 268 264 259 255 252 249 246 244 243 244 246 247 246 244 243 241 239 237 237 237 235 234 233 232 232 232 232 232 231 231 230 229 227 225 224 223 223 223 222 219 219 221 220 220 223 224 223 221 219 220 220 218 214 213 213 210 204 200 200 204 211 222 229 229 229 229 227 224 224 222 218 216 217 218 219 219 219 220 219 218 219 220
289 287 284 281 279 275 271 266 261 256 252 248 246 242 240 239 240 242 243 242 241 240 239 236 235 235 235 233 232 232 231 231 231 231 230 229 229 228 226 224 223 222 222 222 222 219 218 219 219 218 221 222 221 220 219 219 219 218 214 212 212 208 203 198 200 206 212 221 229 230 229 230 229 227 226 223 219 217 217 218 218 218 219 219 219 218 217 217
290 287 285 282 280 276 272 268 263 258 253 249 245 242 239 237 236 237 239 240 239 238 238 236 234 233 234 233 232 231 231 230 230 230 229 228 227 226 225 224 223 221 221 221 220 220 218 218 218 218 219 221 220 219 220 219 218 217 214 211 209 206 201 197 199 206 210 216 226 231 231 229 228 229 228 225 220 217 217 218 218 219 219 219 219 219 218 218
292 289 286 284 281 277 273 269 265 260 255 250 246 242 239 236 234 233 234 236 236 235 235 236 234 232 232 232 231 230 230 229 229 229 228 227 226 225 224 224 223 221 220 219 218 219 219 218 219 218 218 220 219 219 221 220 217 217 215 211 208 204 200 197 199 204 205 208 217 226 232 229 222 222 223 222 221 218 216 217 217 217 219 219 219 219 219 220
296 293 290 286 283 279 276 271 267 262 256 252 247 243 239 236 233 231 230 232 233 233 232 233 233 231 230 230 230 229 229 228 228 227 227 227 226 224 223 223 222 220 220 219 217 218 218 218 219 218 217 218 218 218 219 219 216 215 213 210 206 202 199 198 199 201 201 205 210 217 228 230 221 214 216 217 218 219 218 217 217 217 218 220 220 220 220 220
300 297 294 290 286 282 278 274 268 263 256 251 247 244 240 236 233 231 229 229 230 230 230 230 231 230 228 228 229 228 228 228 227 226 226 226 225 224 223 222 222 220 219 218 217 217 218 217 218 218 217 217 217 217 217 217 215 213 211 208 204 201 200 198 197 198 199 202 207 210 221 231 224 212 213 216 216 219 220 219 219 218 218 219 221 222 222 222
304 300 297 293 290 285 280 275 270 264 257 250 246 243 240 236 233 230 228 227 227 227 228 228 228 228 227 226 227 228 227 226 226 225 225 225 224 224 223 221 221 220 219 218 217 217 217 217 217 218 217 216 216 216 216 216 215 212 208 207 204 201 200 197 194 197 198 199 203 208 215 226 225 213 212 215 214 216 219 220 220 220 219 219 220 221 223 223
308 305 300 296 292 289 284 277 271 264 257 251 245 242 239 236 233 230 228 227 226 225 225 226 226 226 225 224 225 226 226 225 225 224 223 224 224 223 223 221 220 220 219 218 217 217 217 216 216 217 217 217 216 215 215 215 214 211 207 205 203 201 200 197 194 197 198 197 202 207 213 223 225 214 210 213 210 209 213 217 220 221 220 220 221 221 222 223
312 309 305 301 296 292 286 280 272 264 258 251 245 240 238 235 233 229 227 226 225 224 224 224 224 223 223 222 222 224 226 225 225 224 223 223 223 223 222 222 220 219 219 218 217 217 217 216 215 216 216 217 216 215 214 214 214 211 207 204 203 201 200 197 195 197 198 197 201 206 211 220 224 218 212 212 209 205 206 210 215 218 220 220 221 222 222 223
315 312 308 305 301 295 289 282 274 266 258 251 246 240 236 235 233 229 226 225 224 223 222 222 222 222 221 220 220 221 224 225 224 223 223 223 222 222 222 222 221 219 219 218 217 217 217 216 215 215 216 216 216 215 213 213 213 211 207 204 203 202 200 198 195 196 197 198 202 206 209 216 223 220 215 212 210 206 205 206 209 212 216 219 221 223 224 225
319 316 312 308 304 298 293 285 276 268 259 252 246 241 236 234 232 230 226 224 224 223 222 221 220 220 220 219 218 217 220 223 223 222 222 223 222 222 221 221 220 219 219 218 217 217 217 216 215 215 215 215 216 215 214 212 212 211 207 204 203 202 201 199 196 196 197 198 202 206 209 214 222 223 217 212 211 209 208 208 208 209 211 216 220 223 226 227